"startDT [UTC]","vpos","CH4 [ppm]","stdev(CH4) [ppm]","CO2 [ppm]","stdev(CO2) [ppm]","H2O_reported [%]","stdev(H2O_reported)","CavityPressure [torr]","CavityTemp [C]","OutletValve","CH4_dry [ppm]","CO2_dry [ppm]","DasTemp [C]","EtalonTemp [C]","WarmBoxTemp [C]","MPVPosition","T_ECpre [C]","T_EC1 [C]","T_EC2 [C]","p_inlet [hPa]","p_in [hPa]","p_out [hPa]","T_inlet [C]","RH_inlet [%]","dwpt_inlet [C]","T_vent [C]","RH_vent [%]","dwpt_vent [C]","flow_vent [l min-1]","flow_inlet [l min-1]","dwpt_sample [C]","T_room [C]"
2015-01-09 00:00:00,0.0,1.96225,0.00037,408.037,0.032,0.0599,0.0015,139.998,45.000,29174.84769,1.96340,408.330,30.500,45.068,45.000,0.00,0.09,-272.68,-272.74,-4,211,1,17.4,2.5,-30.3,17.8,2.7,-29.2,5.73,2.29,-24.2,23.8
2015-01-09 00:01:00,0.0,1.96221,0.00050,407.985,0.055,0.0599,0.0018,139.999,45.000,29172.55449,1.96339,408.281,30.503,45.068,45.000,0.00,0.09,-272.70,-272.72,-3,211,2,17.4,2.5,-30.3,17.8,2.7,-29.2,5.73,2.53,-24.2,23.8
2015-01-09 00:02:00,0.0,1.96226,0.00044,408.090,0.059,0.0599,0.0011,139.998,45.000,29171.66099,1.96339,408.381,30.529,45.068,45.000,0.00,0.09,-272.69,-272.75,-3,210,1,17.4,2.5,-30.3,17.8,2.7,-29.2,5.73,2.67,-24.2,23.8
2015-01-09 00:03:00,0.0,1.96280,0.00056,408.108,0.040,0.0596,0.0018,140.000,45.000,29175.17328,1.96398,408.403,30.554,45.068,44.999,0.00,0.09,-272.67,-272.76,-4,210,1,17.4,2.4,-30.4,17.8,2.7,-29.2,5.73,2.43,-24.2,23.8
2015-01-09 00:04:00,0.0,1.96267,0.00038,408.127,0.063,0.0595,0.0014,139.998,45.000,29173.99914,1.96377,408.417,30.539,45.068,45.000,0.00,0.09,-272.68,-272.74,-5,210,2,17.4,2.4,-30.5,17.8,2.7,-29.2,5.73,2.27,-24.2,23.8
2015-01-09 00:05:00,0.0,1.96284,0.00031,408.171,0.041,0.0596,0.0016,139.999,45.000,29172.05166,1.96399,408.463,30.539,45.068,44.999,0.00,0.09,-272.71,-272.73,-4,210,1,17.4,2.4,-30.6,17.8,2.7,-29.2,5.73,2.52,-24.2,23.8
2015-01-09 00:06:00,0.0,1.96284,0.00043,408.104,0.043,0.0592,0.0023,139.998,45.000,29173.45957,1.96400,408.396,30.549,45.068,45.000,0.00,0.09,-272.69,-272.75,-3,211,2,17.4,2.4,-30.5,17.8,2.7,-29.2,5.73,2.68,-24.2,23.8
2015-01-09 00:07:00,0.0,1.96203,0.00067,408.021,0.075,0.0590,0.0021,140.000,45.000,29172.46369,1.96322,408.314,30.548,45.068,45.000,0.00,0.09,-272.67,-272.75,-3,210,2,17.4,2.4,-30.4,17.8,2.7,-29.2,5.73,2.43,-24.2,23.8
2015-01-09 00:08:00,0.0,1.96234,0.00090,408.058,0.114,0.0597,0.0014,139.999,45.000,29171.62930,1.96340,408.345,30.514,45.068,45.000,0.00,0.09,-272.68,-272.74,-4,210,1,17.3,2.4,-30.4,17.8,2.7,-29.1,5.73,2.28,-24.2,23.8
2015-01-09 00:09:00,0.0,1.96518,0.00069,408.425,0.112,0.0582,0.0016,140.000,45.000,29176.22996,1.96620,408.705,30.521,45.068,45.000,0.00,0.09,-272.71,-272.74,-5,210,2,17.4,2.4,-30.6,17.8,2.7,-29.1,5.73,2.53,-24.2,23.8
2015-01-09 00:10:00,0.0,1.96596,0.00051,408.521,0.053,0.0574,0.0013,139.998,45.000,29171.63665,1.96711,408.806,30.517,45.068,45.000,0.00,0.09,-272.69,-272.74,-4,210,1,17.4,2.3,-30.9,17.8,2.7,-29.1,5.73,2.66,-24.2,23.8
2015-01-09 00:11:00,0.0,1.96592,0.00048,408.531,0.034,0.0570,0.0013,140.000,45.000,29170.51992,1.96700,408.808,30.523,45.068,45.000,0.00,0.09,-272.67,-272.75,-3,211,1,17.4,2.3,-30.9,17.8,2.7,-29.1,5.73,2.41,-24.2,23.8
2015-01-09 00:12:00,0.0,1.96701,0.00054,408.694,0.054,0.0561,0.0016,140.000,45.000,29166.18991,1.96807,408.967,30.506,45.068,45.000,0.00,0.09,-272.69,-272.75,-3,209,1,17.4,2.3,-31.0,17.8,2.7,-29.1,5.73,2.28,-24.2,23.8
2015-01-09 00:13:00,0.0,1.96592,0.00057,408.565,0.037,0.0553,0.0014,139.999,45.000,29171.93978,1.96703,408.841,30.494,45.068,45.000,0.00,0.09,-272.69,-272.73,-4,210,1,17.3,2.3,-31.1,17.8,2.7,-29.1,5.73,2.53,-24.2,23.8
2015-01-09 00:14:00,0.0,1.96564,0.00052,408.538,0.049,0.0564,0.0016,140.001,45.000,29168.89219,1.96674,408.817,30.449,45.068,45.000,0.00,0.09,-272.69,-272.74,-5,209,1,17.3,2.3,-31.1,17.8,2.7,-29.1,5.73,2.68,-24.2,23.8
2015-01-09 00:15:00,0.0,1.96515,0.00047,408.445,0.048,0.0563,0.0018,139.999,45.000,29170.02443,1.96624,408.722,30.437,45.069,45.000,0.00,0.09,-272.67,-272.76,-4,210,1,17.3,2.3,-31.1,17.8,2.7,-29.1,5.73,2.42,-24.2,23.8
2015-01-09 00:16:00,0.0,1.96562,0.00053,408.493,0.042,0.0564,0.0019,140.000,45.000,29168.60109,1.96669,408.769,30.429,45.069,45.000,0.00,0.09,-272.69,-272.75,-4,210,2,17.3,2.3,-31.1,17.8,2.7,-29.1,5.73,2.29,-24.2,23.8
2015-01-09 00:17:00,0.0,1.96630,0.00042,408.551,0.044,0.0558,0.0014,140.001,45.000,29171.05425,1.96736,408.824,30.411,45.068,45.000,0.00,0.09,-272.69,-272.73,-3,210,2,17.3,2.3,-31.1,17.8,2.7,-29.1,5.73,2.54,-24.2,23.8
2015-01-09 00:18:00,0.0,1.96656,0.00048,408.610,0.030,0.0553,0.0017,139.999,45.000,29170.15093,1.96765,408.882,30.412,45.069,45.000,0.00,0.09,-272.69,-272.75,-4,210,1,17.3,2.3,-31.2,17.8,2.7,-29.1,5.73,2.68,-24.2,23.8
2015-01-09 00:19:00,0.0,1.96697,0.00044,408.668,0.027,0.0555,0.0017,140.003,45.000,29173.55918,1.96799,408.939,30.405,45.068,45.000,0.00,0.09,-272.67,-272.76,-5,210,1,17.3,2.3,-31.2,17.8,2.7,-29.1,5.73,2.41,-24.2,23.8
2015-01-09 00:20:00,0.0,1.96679,0.00048,408.691,0.061,0.0549,0.0015,140.002,45.000,29174.58489,1.96786,408.958,30.382,45.068,45.000,0.00,0.09,-272.69,-272.74,-4,210,2,17.3,2.3,-31.2,17.8,2.7,-29.1,5.73,2.28,-24.2,23.8
2015-01-09 00:21:00,0.0,1.96809,0.00042,408.858,0.041,0.0536,0.0016,139.999,45.000,29178.63192,1.96909,409.121,30.383,45.068,45.000,0.00,0.09,-272.70,-272.73,-4,212,2,17.3,2.2,-31.4,17.8,2.7,-29.1,5.73,2.57,-24.2,23.8
2015-01-09 00:22:00,0.0,1.96808,0.00046,408.873,0.048,0.0535,0.0021,140.001,45.000,29176.01200,1.96915,409.138,30.377,45.068,45.000,0.00,0.09,-272.69,-272.74,-3,211,1,17.3,2.2,-31.5,17.8,2.7,-29.0,5.73,2.67,-24.2,23.8
2015-01-09 00:23:00,0.0,1.96809,0.00032,408.882,0.041,0.0537,0.0017,139.999,45.000,29184.18616,1.96911,409.143,30.380,45.068,45.000,0.00,0.09,-272.68,-272.76,-4,211,1,17.3,2.2,-31.5,17.8,2.7,-29.0,5.73,2.35,-24.2,23.8
2015-01-09 00:24:00,0.0,1.96928,0.00035,408.991,0.040,0.0528,0.0020,140.000,45.000,29186.52972,1.97025,409.250,30.378,45.068,45.000,0.00,0.09,-272.69,-272.73,-4,212,2,17.3,2.2,-31.6,17.8,2.7,-29.0,5.73,2.30,-24.2,23.8
2015-01-09 00:25:00,0.0,1.96941,0.00029,409.032,0.039,0.0532,0.0016,139.999,45.000,29191.55798,1.97044,409.293,30.375,45.068,45.000,0.00,0.09,-272.70,-272.73,-4,214,1,17.3,2.2,-31.7,17.8,2.7,-29.0,5.73,2.63,-24.2,23.7
2015-01-09 00:26:00,0.0,1.96954,0.00039,409.006,0.028,0.0524,0.0017,139.996,45.000,29188.57511,1.97053,409.265,30.375,45.068,45.000,0.00,0.09,-272.68,-272.75,-3,212,2,17.3,2.2,-31.8,17.8,2.7,-29.1,5.73,2.61,-24.2,23.8
2015-01-09 00:27:00,0.0,1.96911,0.00040,408.959,0.038,0.0530,0.0015,139.999,45.000,29190.17458,1.97015,409.221,30.350,45.068,45.000,0.00,0.09,-272.67,-272.75,-3,213,2,17.3,2.2,-31.8,17.8,2.7,-29.0,5.73,2.26,-24.2,23.8
2015-01-09 00:28:00,0.0,1.96836,0.00067,408.875,0.081,0.0520,0.0019,139.998,45.000,29187.77955,1.96946,409.134,30.313,45.069,45.000,0.00,0.09,-272.67,-272.74,-4,212,1,17.3,2.2,-31.7,17.7,2.7,-29.1,5.73,2.33,-24.2,23.8
2015-01-09 00:29:00,0.0,1.96809,0.00054,408.775,0.040,0.0525,0.0019,140.001,45.000,29185.71258,1.96907,409.031,30.305,45.069,45.000,0.00,0.09,-272.69,-272.73,-5,212,1,17.3,2.2,-31.6,17.7,2.7,-29.1,5.73,2.64,-24.2,23.8
2015-01-09 00:30:00,0.0,1.96836,0.00051,408.795,0.026,0.0531,0.0019,140.001,45.000,29175.89558,1.96936,409.056,30.289,45.069,45.000,0.00,0.09,-272.67,-272.75,-4,211,2,17.3,2.2,-31.6,17.7,2.7,-29.1,5.73,2.54,-24.2,23.7
2015-01-09 00:31:00,0.0,1.96777,0.00062,408.727,0.062,0.0538,0.0015,139.999,45.000,29173.11874,1.96886,408.993,30.270,45.069,45.001,0.00,0.09,-272.67,-272.75,-3,211,2,17.3,2.2,-31.6,17.7,2.7,-29.1,5.73,2.25,-24.2,23.7
2015-01-09 00:32:00,0.0,1.96690,0.00055,408.639,0.060,0.0533,0.0015,140.004,45.000,29180.25490,1.96796,408.904,30.304,45.069,45.001,0.00,0.09,-272.69,-272.74,-3,212,2,17.2,2.2,-31.5,17.7,2.7,-29.1,5.73,2.38,-24.3,23.7
2015-01-09 00:33:00,0.0,1.96662,0.00044,408.575,0.033,0.0540,0.0013,140.001,45.000,29185.16843,1.96765,408.839,30.310,45.069,45.000,0.00,0.09,-272.69,-272.73,-4,211,2,17.2,2.2,-31.4,17.7,2.7,-29.1,5.73,2.66,-24.2,23.7
2015-01-09 00:34:00,0.0,1.96671,0.00053,408.533,0.032,0.0549,0.0013,139.999,45.000,29186.36969,1.96781,408.802,30.303,45.069,45.000,0.00,0.09,-272.67,-272.75,-5,213,2,17.2,2.3,-31.4,17.7,2.7,-29.1,5.73,2.52,-24.2,23.8
2015-01-09 00:35:00,0.0,1.96690,0.00035,408.583,0.041,0.0539,0.0014,140.001,45.000,29190.82213,1.96792,408.849,30.308,45.069,45.000,0.00,0.09,-272.68,-272.74,-4,213,2,17.2,2.3,-31.4,17.7,2.7,-29.1,5.73,2.23,-24.2,23.7
2015-01-09 00:36:00,0.0,1.96670,0.00035,408.510,0.044,0.0544,0.0023,139.999,45.000,29191.21866,1.96778,408.778,30.313,45.069,45.000,0.00,0.09,-272.71,-272.73,-3,213,1,17.2,2.3,-31.4,17.7,2.7,-29.1,5.73,2.41,-24.3,23.7
2015-01-09 00:37:00,0.0,1.96559,0.00049,408.460,0.031,0.0551,0.0016,140.002,45.000,29196.04456,1.96664,408.729,30.309,45.068,45.000,0.00,0.09,-272.70,-272.74,-3,214,2,17.2,2.3,-31.3,17.7,2.7,-29.1,5.73,2.66,-24.3,23.7
2015-01-09 00:38:00,0.0,1.96594,0.00057,408.463,0.053,0.0558,0.0015,140.000,45.000,29191.84056,1.96705,408.739,30.314,45.068,45.000,0.00,0.09,-272.66,-272.75,-4,212,2,17.2,2.3,-31.3,17.7,2.7,-29.1,5.73,2.35,-24.2,23.7
2015-01-09 00:39:00,0.0,1.96520,0.00089,408.353,0.091,0.0556,0.0012,139.999,45.000,29189.37257,1.96637,408.634,30.313,45.068,45.000,0.00,0.09,-272.69,-272.74,-5,213,2,17.2,2.3,-31.2,17.7,2.7,-29.1,5.73,2.24,-24.3,23.7
2015-01-09 00:40:00,0.0,1.96481,0.00053,408.311,0.073,0.0559,0.0018,139.998,45.000,29182.74046,1.96581,408.580,30.315,45.068,45.000,0.00,0.09,-272.71,-272.73,-4,213,1,17.2,2.3,-31.0,17.7,2.7,-29.1,5.73,2.59,-24.3,23.7
2015-01-09 00:41:00,0.0,1.96456,0.00040,408.317,0.036,0.0565,0.0016,139.994,45.000,29179.12504,1.96568,408.595,30.311,45.068,45.000,0.00,0.09,-272.69,-272.75,-3,212,2,17.2,2.3,-31.0,17.7,2.7,-29.1,5.73,2.54,-24.3,23.7
2015-01-09 00:42:00,0.0,1.96521,0.00051,408.369,0.067,0.0556,0.0020,139.997,45.000,29181.52551,1.96622,408.638,30.303,45.068,45.000,0.00,0.09,-272.68,-272.75,-3,213,1,17.2,2.3,-31.1,17.7,2.7,-29.1,5.73,2.18,-24.3,23.7
2015-01-09 00:43:00,0.0,1.96650,0.00046,408.539,0.027,0.0555,0.0018,139.998,45.000,29173.75855,1.96754,408.810,30.262,45.068,45.000,0.00,0.09,-272.69,-272.75,-5,211,2,17.2,2.3,-31.2,17.7,2.7,-29.1,5.73,2.34,-24.3,23.7
2015-01-09 00:44:00,0.0,1.96676,0.00040,408.589,0.043,0.0550,0.0014,140.001,45.000,29173.02678,1.96782,408.859,30.254,45.068,45.000,0.00,0.09,-272.69,-272.74,-4,211,2,17.2,2.3,-31.3,17.7,2.7,-29.1,5.73,2.59,-24.3,23.7
2015-01-09 00:45:00,0.0,1.96628,0.00052,408.518,0.060,0.0543,0.0019,139.999,45.000,29170.65332,1.96736,408.788,30.286,45.068,45.000,0.00,0.09,-272.68,-272.75,-3,212,1,17.2,2.3,-31.3,17.7,2.7,-29.1,5.73,2.44,-24.3,23.7
2015-01-09 00:46:00,0.0,1.96565,0.00063,408.339,0.081,0.0547,0.0024,140.000,45.000,29169.11105,1.96678,408.611,30.267,45.068,45.000,0.00,0.09,-272.68,-272.76,-3,210,2,17.2,2.3,-31.2,17.7,2.7,-29.1,5.73,2.24,-24.3,23.7
2015-01-09 00:47:00,0.0,1.96550,0.00089,408.340,0.073,0.0555,0.0019,140.000,45.000,29173.24859,1.96652,408.609,30.282,45.068,45.000,0.00,0.09,-272.70,-272.73,-4,211,2,17.2,2.3,-31.2,17.7,2.7,-29.1,5.73,2.53,-24.3,23.7
2015-01-09 00:48:00,0.0,1.96659,0.00031,408.472,0.037,0.0555,0.0018,139.998,45.000,29169.01991,1.96763,408.743,30.276,45.068,44.999,0.00,0.09,-272.69,-272.74,-5,212,2,17.2,2.3,-31.2,17.7,2.7,-29.1,5.73,2.70,-24.3,23.7
2015-01-09 00:49:00,0.0,1.96485,0.00099,408.260,0.119,0.0550,0.0016,139.996,45.000,29171.76251,1.96604,408.537,30.250,45.068,44.999,0.00,0.09,-272.68,-272.76,-4,211,2,17.2,2.3,-31.2,17.7,2.7,-29.1,5.73,2.42,-24.3,23.7
2015-01-09 00:50:00,0.0,1.96292,0.00080,407.926,0.088,0.0565,0.0019,140.002,45.000,29175.92695,1.96401,408.205,30.251,45.068,45.000,0.00,0.09,-272.69,-272.75,-3,212,2,17.1,2.4,-30.9,17.6,2.7,-29.1,5.73,2.26,-24.3,23.6
2015-01-09 00:51:00,0.0,1.96246,0.00070,407.847,0.085,0.0584,0.0017,139.999,45.000,29175.78744,1.96365,408.136,30.250,45.068,45.000,0.00,0.09,-272.70,-272.72,-3,212,2,17.1,2.4,-30.7,17.6,2.7,-29.1,5.73,2.60,-24.3,23.6
2015-01-09 00:52:00,0.0,1.96125,0.00069,407.664,0.078,0.0592,0.0017,140.000,45.000,29178.63600,1.96236,407.955,30.253,45.068,45.000,0.00,0.09,-272.69,-272.75,-4,211,2,17.1,2.5,-30.5,17.6,2.7,-29.1,5.73,2.65,-24.3,23.6
2015-01-09 00:53:00,0.0,1.96298,0.00054,407.846,0.068,0.0592,0.0019,139.998,45.000,29177.73310,1.96410,408.132,30.255,45.068,45.000,0.00,0.09,-272.67,-272.76,-4,212,2,17.1,2.5,-30.4,17.6,2.7,-29.2,5.73,2.31,-24.3,23.6
2015-01-09 00:54:00,0.0,1.96444,0.00060,408.079,0.054,0.0582,0.0018,140.000,45.000,29178.39814,1.96550,408.362,30.262,45.068,45.000,0.00,0.09,-272.69,-272.73,-4,212,2,17.1,2.4,-30.6,17.6,2.7,-29.1,5.73,2.34,-24.3,23.6
2015-01-09 00:55:00,0.0,1.96557,0.00057,408.195,0.047,0.0572,0.0018,140.001,45.000,29176.67987,1.96661,408.472,30.251,45.068,45.000,0.00,0.09,-272.70,-272.73,-3,212,2,17.1,2.4,-30.8,17.6,2.7,-29.1,5.73,2.66,-24.3,23.6
2015-01-09 00:56:00,0.0,1.96611,0.00046,408.291,0.028,0.0569,0.0019,139.998,45.000,29177.86544,1.96722,408.569,30.245,45.068,45.000,0.00,0.09,-272.68,-272.75,-3,212,2,17.1,2.4,-31.0,17.6,2.7,-29.2,5.73,2.59,-24.3,23.7
2015-01-09 00:57:00,0.0,1.96567,0.00057,408.260,0.062,0.0561,0.0018,140.001,45.000,29179.59441,1.96680,408.538,30.242,45.068,45.000,0.00,0.09,-272.67,-272.76,-4,213,2,17.1,2.4,-30.9,17.6,2.7,-29.1,5.73,2.28,-24.3,23.7
2015-01-09 00:58:00,0.0,1.96428,0.00054,408.096,0.057,0.0569,0.0020,140.002,45.000,29186.67990,1.96542,408.378,30.232,45.069,45.000,0.00,0.09,-272.70,-272.73,-4,213,2,17.1,2.4,-31.0,17.6,2.7,-29.1,5.73,2.41,-24.3,23.6
2015-01-09 00:59:00,0.0,1.96310,0.00066,407.964,0.062,0.0571,0.0018,139.998,45.000,29185.03929,1.96425,408.247,30.225,45.069,45.000,0.00,0.09,-272.70,-272.74,-3,213,2,17.1,2.4,-30.8,17.6,2.7,-29.2,5.73,2.70,-24.3,23.6
2015-01-09 01:00:00,0.0,1.96273,0.00029,407.893,0.034,0.0578,0.0017,139.999,45.000,29183.05078,1.96387,408.175,30.232,45.069,45.000,0.00,0.09,-272.68,-272.76,-2,213,2,17.1,2.4,-30.7,17.6,2.7,-29.1,5.73,2.48,-24.3,23.7
2015-01-09 01:01:00,0.0,1.96328,0.00053,407.992,0.036,0.0577,0.0012,140.001,45.000,29179.66364,1.96436,408.274,30.250,45.069,45.000,0.00,0.09,-272.68,-272.75,-3,211,2,17.1,2.4,-30.7,17.6,2.7,-29.1,5.73,2.27,-24.3,23.6
2015-01-09 01:02:00,0.0,1.96269,0.00044,407.904,0.043,0.0572,0.0015,139.999,45.000,29179.80762,1.96381,408.186,30.249,45.069,45.000,0.00,0.09,-272.70,-272.73,-4,212,2,17.1,2.4,-30.7,17.6,2.7,-29.2,5.73,2.52,-24.3,23.7
2015-01-09 01:03:00,0.0,1.96294,0.00060,407.946,0.044,0.0573,0.0017,140.001,45.000,29183.51701,1.96399,408.225,30.234,45.069,45.000,0.00,0.09,-272.70,-272.75,-4,213,2,17.1,2.4,-30.7,17.6,2.7,-29.1,5.73,2.70,-24.3,23.7
2015-01-09 01:04:00,0.0,1.96235,0.00096,407.832,0.079,0.0576,0.0016,139.998,45.000,29186.47794,1.96356,408.119,30.191,45.069,45.000,0.00,0.09,-272.67,-272.76,-3,213,2,17.1,2.4,-30.6,17.6,2.7,-29.1,5.73,2.40,-24.3,23.7
2015-01-09 01:05:00,0.0,1.96151,0.00078,407.692,0.080,0.0590,0.0014,140.002,45.000,29192.52609,1.96268,407.982,30.193,45.069,45.000,0.00,0.09,-272.68,-272.74,-3,213,2,17.1,2.5,-30.5,17.6,2.7,-29.1,5.73,2.27,-24.3,23.6
2015-01-09 01:06:00,0.0,1.96005,0.00053,407.522,0.053,0.0590,0.0013,139.999,45.000,29191.14651,1.96120,407.811,30.189,45.069,45.001,0.00,0.09,-272.70,-272.73,-3,213,2,17.1,2.5,-30.3,17.6,2.7,-29.2,5.73,2.63,-24.3,23.6
2015-01-09 01:07:00,0.0,1.96046,0.00053,407.595,0.035,0.0600,0.0017,140.003,45.000,29196.68945,1.96160,407.888,30.192,45.069,45.001,0.00,0.09,-272.69,-272.75,-4,213,2,17.1,2.5,-30.2,17.6,2.7,-29.1,5.73,2.65,-24.3,23.6
2015-01-09 01:08:00,0.0,1.96042,0.00034,407.613,0.028,0.0597,0.0020,139.998,45.000,29197.29003,1.96157,407.906,30.232,45.069,45.001,0.00,0.09,-272.67,-272.75,-4,215,2,17.1,2.5,-30.2,17.6,2.7,-29.1,5.73,2.27,-24.3,23.6
2015-01-09 01:09:00,0.0,1.96077,0.00051,407.622,0.039,0.0597,0.0015,140.001,45.000,29194.70407,1.96192,407.915,30.250,45.069,45.000,0.00,0.09,-272.69,-272.73,-3,214,2,17.1,2.5,-30.3,17.6,2.7,-29.2,5.73,2.40,-24.3,23.7
2015-01-09 01:10:00,0.0,1.96078,0.00051,407.617,0.045,0.0590,0.0020,140.000,45.000,29191.67370,1.96192,407.905,30.247,45.069,45.000,0.00,0.09,-272.70,-272.74,-3,214,2,17.2,2.5,-30.3,17.6,2.7,-29.2,5.73,2.70,-24.3,23.7
2015-01-09 01:11:00,0.0,1.96058,0.00043,407.558,0.046,0.0600,0.0013,140.000,45.000,29190.49451,1.96171,407.853,30.242,45.069,45.000,0.00,0.09,-272.67,-272.76,-4,213,2,17.2,2.5,-30.3,17.6,2.7,-29.1,5.73,2.46,-24.4,23.7
2015-01-09 01:12:00,0.0,1.96105,0.00054,407.662,0.056,0.0593,0.0012,139.998,45.000,29187.95835,1.96218,407.950,30.245,45.069,45.000,0.00,0.09,-272.68,-272.74,-4,213,2,17.2,2.5,-30.4,17.6,2.7,-29.1,5.73,2.25,-24.3,23.7
2015-01-09 01:13:00,0.0,1.96132,0.00057,407.654,0.044,0.0594,0.0020,140.003,45.000,29192.50124,1.96252,407.948,30.234,45.069,45.000,0.00,0.09,-272.71,-272.73,-3,215,2,17.2,2.5,-30.4,17.6,2.7,-29.1,5.73,2.61,-24.3,23.7
2015-01-09 01:14:00,0.0,1.95965,0.00047,407.459,0.042,0.0599,0.0016,140.000,45.000,29191.29217,1.96085,407.755,30.245,45.069,45.000,0.00,0.09,-272.69,-272.75,-2,213,2,17.2,2.5,-30.4,17.6,2.7,-29.1,5.73,2.66,-24.3,23.7
2015-01-09 01:15:00,0.0,1.95717,0.00113,407.145,0.140,0.0612,0.0017,139.999,45.000,29188.83130,1.95842,407.451,30.249,45.069,45.000,0.00,0.09,-272.67,-272.76,-4,213,2,17.2,2.5,-30.1,17.6,2.7,-29.1,5.73,2.23,-24.3,23.7
2015-01-09 01:16:00,0.0,1.95667,0.00046,407.056,0.035,0.0636,0.0014,139.997,45.000,29187.86770,1.95788,407.365,30.249,45.069,45.000,0.00,0.09,-272.70,-272.74,-4,213,2,17.2,2.6,-29.8,17.6,2.7,-29.1,5.73,2.35,-24.3,23.7
2015-01-09 01:17:00,0.0,1.95727,0.00032,407.109,0.048,0.0633,0.0017,139.998,45.000,29187.68437,1.95850,407.420,30.248,45.069,45.000,0.00,0.09,-272.70,-272.74,-3,213,2,17.2,2.6,-29.8,17.6,2.7,-29.1,5.73,2.67,-24.3,23.7
2015-01-09 01:18:00,0.0,1.95602,0.00069,406.956,0.081,0.0628,0.0016,140.001,45.000,29187.08798,1.95732,407.268,30.250,45.069,45.000,0.00,0.09,-272.67,-272.75,-3,213,2,17.2,2.6,-29.8,17.7,2.7,-29.1,5.73,2.43,-24.3,23.7
2015-01-09 01:19:00,0.0,1.95544,0.00053,406.877,0.066,0.0645,0.0014,140.001,45.000,29185.74725,1.95661,407.189,30.261,45.069,45.000,0.00,0.09,-272.68,-272.74,-3,212,2,17.2,2.7,-29.6,17.7,2.7,-29.1,5.73,2.23,-24.3,23.7
2015-01-09 01:20:00,0.0,1.95726,0.00041,407.104,0.043,0.0640,0.0017,140.000,45.000,29186.66620,1.95847,407.413,30.278,45.069,45.000,0.00,0.09,-272.70,-272.73,-4,213,2,17.2,2.7,-29.7,17.7,2.7,-29.1,5.73,2.58,-24.3,23.7
2015-01-09 01:21:00,0.0,1.95719,0.00059,407.086,0.042,0.0637,0.0014,140.001,45.000,29190.44009,1.95842,407.400,30.279,45.069,45.000,0.00,0.09,-272.68,-272.74,-4,214,2,17.2,2.6,-29.7,17.6,2.7,-29.1,5.73,2.66,-24.3,23.6
2015-01-09 01:22:00,0.0,1.95671,0.00044,407.031,0.041,0.0638,0.0014,139.997,45.000,29189.98014,1.95796,407.343,30.308,45.068,45.000,0.00,0.09,-272.67,-272.75,-3,214,2,17.2,2.6,-29.8,17.6,2.7,-29.1,5.73,2.28,-24.4,23.6
2015-01-09 01:23:00,0.0,1.95715,0.00041,407.107,0.058,0.0643,0.0019,140.002,45.000,29195.29228,1.95833,407.421,30.295,45.068,45.000,0.00,0.09,-272.69,-272.74,-3,214,2,17.2,2.6,-29.7,17.6,2.7,-29.1,5.73,2.39,-24.3,23.6
2015-01-09 01:24:00,0.0,1.95666,0.00064,407.062,0.057,0.0635,0.0018,139.997,45.000,29193.09287,1.95791,407.373,30.280,45.068,45.000,0.00,0.09,-272.69,-272.74,-4,213,2,17.2,2.6,-29.8,17.6,2.7,-29.2,5.73,2.73,-24.3,23.6
2015-01-09 01:25:00,0.0,1.95680,0.00040,407.103,0.031,0.0634,0.0013,139.998,45.000,29194.40997,1.95801,407.413,30.262,45.068,45.000,0.00,0.09,-272.67,-272.75,-4,214,2,17.2,2.6,-29.8,17.6,2.7,-29.1,5.73,2.45,-24.3,23.6
2015-01-09 01:26:00,0.0,1.95621,0.00053,406.975,0.074,0.0641,0.0019,140.000,45.000,29195.86647,1.95746,407.291,30.279,45.069,45.000,0.00,0.09,-272.69,-272.75,-3,214,2,17.2,2.6,-29.7,17.6,2.7,-29.1,5.73,2.26,-24.3,23.6
2015-01-09 01:27:00,0.0,1.95588,0.00075,406.899,0.100,0.0643,0.0012,140.000,45.000,29194.06629,1.95716,407.217,30.255,45.069,45.000,0.00,0.09,-272.70,-272.73,-3,214,2,17.2,2.7,-29.7,17.6,2.7,-29.2,5.73,2.66,-24.3,23.6
2015-01-09 01:28:00,0.0,1.95626,0.00040,406.966,0.058,0.0645,0.0019,140.000,45.000,29192.56569,1.95747,407.277,30.250,45.069,45.000,0.00,0.09,-272.68,-272.75,-4,213,2,17.2,2.7,-29.6,17.6,2.7,-29.2,5.73,2.60,-24.3,23.6
2015-01-09 01:29:00,0.0,1.95683,0.00058,407.060,0.043,0.0644,0.0020,139.999,45.000,29188.09629,1.95803,407.374,30.245,45.069,45.000,0.00,0.09,-272.68,-272.74,-5,213,2,17.2,2.7,-29.7,17.6,2.7,-29.2,5.73,2.25,-24.3,23.6
2015-01-09 01:30:00,0.0,1.95791,0.00050,407.237,0.041,0.0633,0.0014,140.001,45.000,29187.73676,1.95913,407.545,30.249,45.069,45.000,0.00,0.09,-272.71,-272.73,-3,213,2,17.1,2.6,-29.8,17.6,2.7,-29.1,5.73,2.49,-24.3,23.6
2015-01-09 01:31:00,0.0,1.95774,0.00072,407.194,0.060,0.0626,0.0014,140.000,45.000,29188.17068,1.95902,407.503,30.250,45.068,45.000,0.00,0.09,-272.70,-272.74,-3,214,2,17.1,2.6,-29.9,17.6,2.7,-29.2,5.73,2.74,-24.4,23.6
2015-01-09 01:32:00,0.0,1.95630,0.00064,406.989,0.110,0.0631,0.0017,140.001,45.000,29181.85170,1.95747,407.299,30.250,45.068,45.000,0.00,0.09,-272.67,-272.75,-4,212,2,17.1,2.6,-29.8,17.6,2.7,-29.2,5.73,2.35,-24.4,23.6
2015-01-09 01:33:00,0.0,1.95640,0.00050,406.988,0.050,0.0641,0.0016,139.998,45.000,29175.51132,1.95765,407.302,30.248,45.068,45.000,0.00,0.09,-272.69,-272.73,-5,212,2,17.1,2.7,-29.7,17.6,2.7,-29.1,5.73,2.34,-24.4,23.6
2015-01-09 01:34:00,0.0,1.95670,0.00044,407.021,0.045,0.0635,0.0018,139.999,45.000,29176.48475,1.95789,407.331,30.236,45.068,45.000,0.00,0.09,-272.71,-272.74,-4,213,2,17.1,2.6,-29.8,17.6,2.7,-29.0,5.73,2.72,-24.4,23.6
2015-01-09 01:35:00,0.0,1.95629,0.00033,406.964,0.036,0.0631,0.0016,140.003,45.000,29183.12193,1.95752,407.274,30.239,45.068,45.000,0.00,0.09,-272.67,-272.75,-3,213,2,17.1,2.6,-29.8,17.6,2.7,-29.1,5.73,2.53,-24.4,23.6
2015-01-09 01:36:00,0.0,1.95576,0.00060,406.895,0.055,0.0640,0.0018,139.999,45.000,29185.03568,1.95706,407.209,30.203,45.068,44.999,0.00,0.09,-272.68,-272.75,-3,213,2,17.1,2.7,-29.7,17.6,2.7,-29.1,5.73,2.24,-24.4,23.6
2015-01-09 01:37:00,0.0,1.95600,0.00039,406.935,0.065,0.0637,0.0018,140.001,45.000,29189.86966,1.95718,407.245,30.189,45.068,45.000,0.00,0.09,-272.71,-272.73,-4,213,2,17.1,2.7,-29.7,17.6,2.7,-29.0,5.73,2.62,-24.4,23.6
2015-01-09 01:38:00,0.0,1.95664,0.00049,407.018,0.027,0.0638,0.0017,140.000,45.000,29186.89814,1.95782,407.329,30.187,45.068,45.000,0.00,0.09,-272.68,-272.75,-4,213,2,17.1,2.6,-29.8,17.6,2.7,-29.1,5.73,2.67,-24.4,23.6
2015-01-09 01:39:00,0.0,1.95751,0.00060,407.124,0.074,0.0623,0.0013,140.000,45.000,29184.40256,1.95870,407.427,30.188,45.068,45.000,0.00,0.09,-272.67,-272.75,-2,213,2,17.1,2.6,-29.8,17.6,2.8,-29.1,5.73,2.27,-24.4,23.6
2015-01-09 01:40:00,0.0,1.95755,0.00055,407.155,0.043,0.0614,0.0016,140.000,45.000,29177.21871,1.95875,407.456,30.186,45.068,45.000,0.00,0.09,-272.70,-272.73,-3,212,2,17.1,2.6,-29.9,17.5,2.7,-29.1,5.73,2.45,-24.4,23.6
2015-01-09 01:41:00,0.0,1.95840,0.00058,407.252,0.066,0.0620,0.0014,139.999,45.000,29177.07962,1.95960,407.557,30.164,45.068,45.000,0.00,0.09,-272.70,-272.74,-4,211,2,17.1,2.6,-30.0,17.6,2.7,-29.1,5.73,2.74,-24.4,23.6
2015-01-09 01:42:00,0.0,1.95896,0.00113,407.246,0.149,0.0617,0.0018,140.001,45.000,29174.12519,1.96004,407.541,30.181,45.069,45.000,0.00,0.09,-272.67,-272.75,-4,212,2,17.1,2.6,-30.0,17.5,2.7,-29.1,5.73,2.43,-24.4,23.6
2015-01-09 01:43:00,0.0,1.96211,0.00035,407.658,0.044,0.0607,0.0024,140.001,45.000,29186.35478,1.96325,407.953,30.180,45.069,45.000,0.00,0.28,-271.29,-272.55,-3,214,2,17.1,2.5,-30.3,17.6,2.7,-29.1,5.43,2.28,-25.8,23.6
2015-01-09 01:44:00,0.0,1.96159,0.00045,407.590,0.067,0.0591,0.0020,140.004,45.000,29200.60895,1.96277,407.885,30.188,45.069,45.000,0.00,0.09,-272.71,-272.73,-2,215,2,17.1,2.5,-30.4,17.5,2.7,-29.1,5.73,2.69,-24.4,23.6
2015-01-09 01:45:00,0.0,1.95994,0.00051,407.418,0.045,0.0596,0.0014,140.001,45.000,29185.74691,1.96113,407.708,30.177,45.069,45.000,0.00,0.09,-272.68,-272.75,-4,213,2,17.1,2.5,-30.4,17.5,2.7,-29.1,5.73,2.59,-24.4,23.6
2015-01-09 01:46:00,0.0,1.96220,0.00065,407.546,0.068,0.0593,0.0016,140.001,45.000,29183.54402,1.96328,407.839,30.171,45.068,45.000,0.00,0.09,-272.68,-272.75,-4,212,2,17.1,2.5,-30.4,17.6,2.7,-29.1,5.73,2.27,-24.4,23.6